• In Uzbekistan
  • List of Countries
  • For 7 days
  • Water Temperature
  • Satellite Maps
  • Weather Map
  • Weather Widgets
  • user-avatar
    Login

    Hourly Weather Balatonlelle

    Today, 19 September, Wednesday

    Time Temperature Precipitation Wind Pressure Humidity
    00:00 +19°C° 0 mm 1 mps 755 mmHg 55%
    01:00 +19°C° 0 mm 1 mps 755 mmHg 57%
    02:00 +18°C° 0 mm 1 mps 755 mmHg 58%
    03:00 +18°C° 0 mm 1 mps 755 mmHg 60%
    04:00 +18°C° 0 mm 1 mps 755 mmHg 62%
    05:00 +18°C° 0 mm 1 mps 756 mmHg 60%
    06:00 +19°C° 0 mm 1 mps 756 mmHg 58%
    07:00 +20°C° 0 mm 1 mps 756 mmHg 56%
    08:00 +22°C° 0 mm 1 mps 756 mmHg 50%
    09:00 +25°C° 0 mm 1 mps 756 mmHg 44%
    10:00 +27°C° 0 mm 1 mps 756 mmHg 37%
    11:00 +28°C° 0 mm 1 mps 756 mmHg 35%
    12:00 +30°C° 0 mm 1 mps 756 mmHg 32%
    13:00 +31°C° 0 mm 1 mps 755 mmHg 30%
    14:00 +31°C° 0 mm 1 mps 755 mmHg 30%
    15:00 +30°C° 0 mm 1 mps 755 mmHg 30%
    16:00 +28°C° 0 mm 0 mps 755 mmHg 31%
    17:00 +28°C° 0 mm 1 mps 755 mmHg 35%
    18:00 +26°C° 0 mm 1 mps 755 mmHg 40%
    19:00 +24°C° 0 mm 1 mps 755 mmHg 45%
    20:00 +23°C° 0 mm 1 mps 755 mmHg 46%
    21:00 +22°C° 0 mm 1 mps 755 mmHg 48%
    22:00 +22°C° 0 mm 1 mps 756 mmHg 49%
    23:00 +21°C° 0 mm 1 mps 756 mmHg 50%

    Tomorrow, 20 September, Thursday

    Time Temperature Precipitation Wind Pressure Humidity
    00:00 +21°C° 0 mm 1 mps 756 mmHg 52%
    01:00 +20°C° 0 mm 1 mps 756 mmHg 53%
    02:00 +18°C° 0 mm 0 mps 756 mmHg 54%
    03:00 +17°C° 0 mm 0 mps 756 mmHg 56%
    04:00 +17°C° 0 mm 0 mps 755 mmHg 57%
    05:00 +18°C° 0 mm 0 mps 756 mmHg 56%
    06:00 +21°C° 0 mm 1 mps 756 mmHg 55%
    07:00 +22°C° 0 mm 1 mps 756 mmHg 53%
    08:00 +24°C° 0 mm 1 mps 756 mmHg 47%
    09:00 +26°C° 0 mm 1 mps 756 mmHg 42%
    10:00 +28°C° 0 mm 1 mps 756 mmHg 36%
    11:00 +29°C° 0 mm 1 mps 756 mmHg 34%
    12:00 +30°C° 0 mm 1 mps 756 mmHg 31%
    13:00 +32°C° 0 mm 1 mps 755 mmHg 29%
    14:00 +31°C° 0 mm 1 mps 755 mmHg 29%
    15:00 +31°C° 0 mm 1 mps 755 mmHg 29%
    16:00 +31°C° 0 mm 1 mps 754 mmHg 28%
    17:00 +29°C° 0 mm 1 mps 754 mmHg 33%
    18:00 +26°C° 0 mm 1 mps 754 mmHg 38%
    19:00 +24°C° 0 mm 1 mps 754 mmHg 42%
    20:00 +23°C° 0 mm 1 mps 754 mmHg 44%
    21:00 +23°C° 0 mm 1 mps 755 mmHg 45%
    22:00 +22°C° 0 mm 1 mps 755 mmHg 47%
    23:00 +21°C° 0 mm 1 mps 754 mmHg 47%

    Day after tomorrow, 21 September, Friday

    Time Temperature Precipitation Wind Pressure Humidity
    00:00 +21°C° 0 mm 1 mps 754 mmHg 48%
    01:00 +20°C° 0 mm 1 mps 754 mmHg 48%
    02:00 +20°C° 0 mm 1 mps 754 mmHg 48%
    03:00 +20°C° 0 mm 1 mps 754 mmHg 48%
    04:00 +19°C° 0 mm 1 mps 754 mmHg 48%
    05:00 +20°C° 0 mm 1 mps 754 mmHg 47%
    06:00 +20°C° 0 mm 1 mps 754 mmHg 46%
    07:00 +21°C° 0 mm 1 mps 754 mmHg 46%
    08:00 +24°C° 0 mm 2 mps 754 mmHg 40%
    09:00 +26°C° 0 mm 3 mps 753 mmHg 35%
    10:00 +29°C° 0 mm 3 mps 753 mmHg 29%
    11:00 +30°C° 0 mm 4 mps 753 mmHg 27%
    12:00 +32°C° 0 mm 4 mps 752 mmHg 25%
    13:00 +33°C° 0 mm 4 mps 752 mmHg 22%
    14:00 +33°C° 0 mm 4 mps 751 mmHg 22%
    15:00 +32°C° 0 mm 4 mps 750 mmHg 23%
    16:00 +32°C° 0 mm 4 mps 750 mmHg 23%
    17:00 +29°C° 0 mm 3 mps 750 mmHg 27%
    18:00 +26°C° 0 mm 3 mps 750 mmHg 32%
    19:00 +24°C° 0 mm 2 mps 750 mmHg 36%
    20:00 +23°C° 0 mm 2 mps 750 mmHg 38%
    21:00 +22°C° 0 mm 3 mps 750 mmHg 41%
    22:00 +21°C° 0 mm 3 mps 749 mmHg 43%
    23:00 +21°C° 0 mm 3 mps 749 mmHg 47%

    22 September, Saturday

    Time Temperature Precipitation Wind Pressure Humidity
    00:00 +21°C° 0 mm 3 mps 749 mmHg 51%
    01:00 +20°C° 0 mm 3 mps 749 mmHg 54%
    02:00 +20°C° 0 mm 4 mps 749 mmHg 59%
    03:00 +20°C° 0 mm 5 mps 750 mmHg 64%
    04:00 +20°C° 0 mm 6 mps 751 mmHg 68%
    05:00 +18°C° 0 mm 8 mps 752 mmHg 61%
    06:00 +17°C° 0 mm 9 mps 753 mmHg 53%
    07:00 +16°C° 0 mm 11 mps 754 mmHg 45%
    08:00 +14°C° 0.1 mm 10 mps 755 mmHg 48%
    09:00 +13°C° 0.1 mm 9 mps 756 mmHg 52%
    10:00 +12°C° 0.1 mm 8 mps 758 mmHg 55%
    11:00 +11°C° 1.2 mm 7 mps 758 mmHg 63%
    12:00 +10°C° 1.2 mm 5 mps 759 mmHg 71%
    13:00 +11°C° 1.2 mm 4 mps 759 mmHg 78%
    14:00 +11°C° 0.4 mm 3 mps 759 mmHg 79%
    15:00 +11°C° 0.4 mm 3 mps 759 mmHg 79%
    16:00 +12°C° 0.4 mm 2 mps 759 mmHg 80%
    17:00 +10°C° 0 mm 3 mps 759 mmHg 81%
    18:00 +10°C° 0 mm 3 mps 759 mmHg 82%
    19:00 +10°C° 0 mm 3 mps 760 mmHg 84%
    20:00 +9°C° 0 mm 3 mps 760 mmHg 85%
    21:00 +9°C° 0 mm 3 mps 759 mmHg 86%
    22:00 +8°C° 0 mm 2 mps 759 mmHg 87%
    23:00 +8°C° 0 mm 2 mps 759 mmHg 86%

    23 September, Sunday

    Time Temperature Precipitation Wind Pressure Humidity
    00:00 +8°C° 0 mm 2 mps 759 mmHg 85%
    01:00 +9°C° 0 mm 1 mps 759 mmHg 84%
    02:00 +9°C° 0 mm 1 mps 759 mmHg 83%
    03:00 +9°C° 0 mm 1 mps 759 mmHg 82%
    04:00 +9°C° 0 mm 1 mps 759 mmHg 81%
    05:00 +9°C° 0 mm 1 mps 759 mmHg 78%
    06:00 +10°C° 0 mm 1 mps 759 mmHg 75%
    07:00 +10°C° 0 mm 1 mps 759 mmHg 73%
    08:00 +13°C° 0 mm 2 mps 758 mmHg 64%
    09:00 +15°C° 0 mm 2 mps 758 mmHg 55%
    10:00 +17°C° 0 mm 3 mps 757 mmHg 46%
    11:00 +18°C° 0 mm 4 mps 757 mmHg 41%
    12:00 +20°C° 0 mm 4 mps 756 mmHg 37%
    13:00 +21°C° 0 mm 4 mps 755 mmHg 32%
    14:00 +21°C° 0 mm 5 mps 754 mmHg 32%
    15:00 +21°C° 0 mm 5 mps 753 mmHg 32%
    16:00 +21°C° 0 mm 5 mps 752 mmHg 32%
    17:00 +20°C° 0 mm 4 mps 751 mmHg 37%
    18:00 +18°C° 0 mm 4 mps 751 mmHg 41%
    19:00 +17°C° 0 mm 3 mps 750 mmHg 45%
    20:00 +17°C° 0 mm 4 mps 749 mmHg 47%
    21:00 +16°C° 0 mm 5 mps 748 mmHg 48%
    22:00 +16°C° 0 mm 6 mps 748 mmHg 50%
    23:00 +16°C° 0 mm 6 mps 747 mmHg 52%

    24 September, Monday

    Time Temperature Precipitation Wind Pressure Humidity
    00:00 +16°C° 0 mm 6 mps 746 mmHg 55%
    01:00 +16°C° 0 mm 6 mps 745 mmHg 58%
    02:00 +16°C° 0.7 mm 5 mps 745 mmHg 65%
    03:00 +15°C° 0.7 mm 4 mps 745 mmHg 72%
    04:00 +16°C° 0.7 mm 3 mps 746 mmHg 78%
    05:00 +14°C° 3.7 mm 3 mps 746 mmHg 80%
    06:00 +13°C° 3.7 mm 3 mps 746 mmHg 81%
    07:00 +12°C° 3.7 mm 4 mps 746 mmHg 83%
    08:00 +11°C° 2.5 mm 3 mps 746 mmHg 84%
    09:00 +11°C° 2.5 mm 3 mps 747 mmHg 85%
    10:00 +10°C° 2.5 mm 3 mps 747 mmHg 86%
    11:00 +10°C° 1.1 mm 3 mps 748 mmHg 86%
    12:00 +11°C° 1.1 mm 3 mps 748 mmHg 86%
    13:00 +11°C° 1.1 mm 3 mps 748 mmHg 86%
    14:00 +11°C° 0.2 mm 4 mps 748 mmHg 85%
    15:00 +11°C° 0.2 mm 4 mps 749 mmHg 84%
    16:00 +12°C° 0.2 mm 5 mps 749 mmHg 82%
    17:00 +11°C° 0.1 mm 4 mps 749 mmHg 85%
    18:00 +11°C° 0.1 mm 4 mps 749 mmHg 87%
    19:00 +10°C° 0.1 mm 3 mps 750 mmHg 90%
    20:00 +10°C° 0 mm 3 mps 750 mmHg 90%
    21:00 +10°C° 0 mm 3 mps 750 mmHg 90%
    22:00 +9°C° 0 mm 3 mps 750 mmHg 91%
    23:00 +9°C° 0 mm 3 mps 750 mmHg 90%
    Show more